Weather History for Winona, MN

Change the Weather History Date:

Friday, December 7, 2012

  Actual Average Record
Temperature  
Mean Temperature 30 °F -  
Max Temperature 33 °F 32 °F 44 °F (1999)
Min Temperature 28 °F 20 °F -2 °F (2013)
Degree Days  
Heating Degree Days 34    
Moisture  
Dew Point 23 °F    
Average Humidity 72    
Maximum Humidity 80    
Minimum Humidity 64    
Precipitation  
Precipitation 0.00 in - - ()
Sea Level Pressure  
Sea Level Pressure 30.01 in    
Wind  
Wind Speed 6 mph (NNW)    
Max Wind Speed 13 mph    
Max Gust Speed 16 mph    
Visibility 10 miles    
Events      
Averages and records for this station are not official NWS values.
T = Trace of Precipitation, MM = Missing Value Source: NWS Daily Summary

Daily Weather History Graph

Daily Weather History Graph

Search for Another Location

Airport:

Trip Planner

Search our weather history database for the weather conditions in past years. The results will help you decide how hot, cold, wet, or windy it might be!

Date:

Astronomy

Dec. 07, 2012 Rise Set
Actual Time 7:28 AM CST 4:28 PM CST
Civil Twilight 6:55 AM CST 5:01 PM CST
Nautical Twilight 6:19 AM CST 5:37 PM CST
Astronomical Twilight 5:44 AM CST 6:12 PM CST
Moon 12:36 AM CST (12/7) 12:36 PM CST (12/7)
Length of Visible Light 10h 05m
Length of Day
8h 59m
Last Quarter, 38% of the Moon is Illuminated
Dec 7
Last Quarter
Dec 13
New
Dec 19
First Quarter
Dec 28
Full
Jan 4
Last Quarter

Hourly Weather History & Observations

Time (CST) Temp. Windchill Dew Point Humidity Pressure Visibility Wind Dir Wind Speed Gust Speed Precip Events Conditions
12:13 AM 33.8 °F 30.8 °F 26.6 °F 75% 29.96 in 10.0 mi NW 3.5 mph - N/A   Clear
12:33 AM 33.8 °F 27.7 °F 26.6 °F 75% 29.97 in 10.0 mi NW 6.9 mph - N/A   Clear
12:53 AM 33.8 °F 29.6 °F 26.6 °F 75% 29.97 in 10.0 mi NW 4.6 mph - N/A   Clear
1:13 AM 33.8 °F 27.0 °F 26.6 °F 75% 29.97 in 10.0 mi NW 8.1 mph - N/A   Clear
1:33 AM 33.8 °F 27.7 °F 26.6 °F 75% 29.98 in 10.0 mi NW 6.9 mph - N/A   Scattered Clouds
1:53 AM 32.0 °F 24.2 °F 26.6 °F 80% 29.99 in 10.0 mi NW 9.2 mph - N/A   Clear
2:13 AM 32.0 °F 23.6 °F 24.8 °F 75% 30.00 in 10.0 mi NNW 10.4 mph - N/A   Scattered Clouds
2:33 AM 32.0 °F 23.6 °F 24.8 °F 75% 30.00 in 10.0 mi NNW 10.4 mph - N/A   Scattered Clouds
2:53 AM 32.0 °F 22.5 °F 24.8 °F 75% 30.01 in 10.0 mi NNW 12.7 mph 16.1 mph N/A   Scattered Clouds
3:13 AM 32.0 °F 23.6 °F 24.8 °F 75% 30.01 in 10.0 mi NNW 10.4 mph - N/A   Clear
3:33 AM 32.0 °F 24.8 °F 26.6 °F 80% 30.02 in 10.0 mi NNW 8.1 mph - N/A   Clear
3:53 AM 32.0 °F 24.2 °F 26.6 °F 80% 30.02 in 10.0 mi NW 9.2 mph - N/A   Clear
4:13 AM 32.0 °F 26.4 °F 23.0 °F 69% 30.01 in 10.0 mi NNW 5.8 mph - N/A   Clear
4:33 AM 30.2 °F 23.4 °F 23.0 °F 75% 30.01 in 10.0 mi NW 6.9 mph - N/A   Clear
4:53 AM 30.2 °F 22.6 °F 23.0 °F 75% 30.01 in 10.0 mi NNW 8.1 mph - N/A   Clear
5:13 AM 30.2 °F 23.4 °F 23.0 °F 75% 30.02 in 10.0 mi NNW 6.9 mph - N/A   Clear
5:33 AM 30.2 °F 23.4 °F 23.0 °F 75% 30.02 in 10.0 mi NW 6.9 mph - N/A   Clear
5:53 AM 30.2 °F 21.3 °F 21.2 °F 69% 30.02 in 10.0 mi NNW 10.4 mph - N/A   Clear
6:13 AM 28.4 °F 22.2 °F 21.2 °F 74% 30.02 in 10.0 mi NNW 5.8 mph - N/A   Clear
6:33 AM 28.4 °F 22.2 °F 23.0 °F 80% 30.02 in 10.0 mi NNW 5.8 mph - N/A   Clear
6:53 AM 28.4 °F 22.2 °F 23.0 °F 80% 30.02 in 10.0 mi NNW 5.8 mph - N/A   Clear
7:13 AM 28.4 °F 21.2 °F 21.2 °F 74% 30.02 in 10.0 mi NNW 6.9 mph - N/A   Clear
7:33 AM 28.4 °F 21.2 °F 21.2 °F 74% 30.02 in 10.0 mi NNW 6.9 mph - N/A   Clear
7:53 AM 28.4 °F 23.3 °F 21.2 °F 74% 30.02 in 10.0 mi NNW 4.6 mph - N/A   Clear
8:13 AM 28.4 °F 24.6 °F 21.2 °F 74% 30.02 in 10.0 mi NNW 3.5 mph - N/A   Clear
8:33 AM 28.4 °F 24.6 °F 21.2 °F 74% 30.03 in 10.0 mi NNW 3.5 mph - N/A   Clear
8:53 AM 30.2 °F 25.4 °F 21.2 °F 69% 30.03 in 10.0 mi NNW 4.6 mph - N/A   Clear
9:13 AM 30.2 °F 25.4 °F 21.2 °F 69% 30.03 in 10.0 mi NNW 4.6 mph - N/A   Clear
9:33 AM 30.2 °F 26.7 °F 21.2 °F 69% 30.03 in 10.0 mi North 3.5 mph - N/A   Clear
9:53 AM 30.2 °F - 21.2 °F 69% 30.04 in 10.0 mi Calm Calm - N/A   Scattered Clouds
10:13 AM 32.0 °F - 23.0 °F 69% 30.03 in 10.0 mi Calm Calm - N/A   Scattered Clouds
10:33 AM 30.2 °F - 21.2 °F 69% 30.03 in 10.0 mi Calm Calm - N/A   Scattered Clouds
10:53 AM 32.0 °F - 21.2 °F 64% 30.02 in 10.0 mi Calm Calm - N/A   Clear
11:13 AM 32.0 °F 28.7 °F 23.0 °F 69% 30.01 in 10.0 mi NNW 3.5 mph - N/A   Mostly Cloudy
11:33 AM 32.0 °F 26.4 °F 23.0 °F 69% 30.01 in 10.0 mi NW 5.8 mph - N/A   Scattered Clouds
11:53 AM 32.0 °F 24.8 °F 23.0 °F 69% 30.00 in 10.0 mi NW 8.1 mph - N/A   Scattered Clouds
12:13 PM 32.0 °F 26.4 °F 23.0 °F 69% 29.99 in 10.0 mi NNW 5.8 mph - N/A   Mostly Cloudy
12:33 PM 32.0 °F 27.5 °F 23.0 °F 69% 29.99 in 10.0 mi NNW 4.6 mph - N/A   Overcast
12:53 PM 32.0 °F 25.6 °F 23.0 °F 69% 29.99 in 10.0 mi NW 6.9 mph - N/A   Scattered Clouds
1:13 PM 32.0 °F 25.6 °F 23.0 °F 69% 29.98 in 10.0 mi NW 6.9 mph - N/A   Scattered Clouds
1:32 PM 32.0 °F 26.4 °F 23.0 °F 69% 29.99 in 10.0 mi NNW 5.8 mph - N/A   Mostly Cloudy
1:53 PM 32.0 °F 27.5 °F 21.2 °F 64% 29.98 in 10.0 mi North 4.6 mph - N/A   Overcast
2:13 PM 32.0 °F 26.4 °F 21.2 °F 64% 29.98 in 10.0 mi NNW 5.8 mph - N/A   Overcast
2:33 PM 32.0 °F 26.4 °F 21.2 °F 64% 29.99 in 10.0 mi NNW 5.8 mph - N/A   Overcast
3:13 PM 32.0 °F 25.6 °F 23.0 °F 69% 30.00 in 10.0 mi NW 6.9 mph - N/A   Mostly Cloudy
3:33 PM 32.0 °F 24.8 °F 23.0 °F 69% 30.00 in 10.0 mi NNW 8.1 mph - N/A   Scattered Clouds
3:53 PM 32.0 °F 24.2 °F 23.0 °F 69% 30.00 in 10.0 mi NNW 9.2 mph - N/A   Clear
4:13 PM 32.0 °F 27.5 °F 21.2 °F 64% 30.01 in 10.0 mi North 4.6 mph - N/A   Clear
4:33 PM 32.0 °F 25.6 °F 23.0 °F 69% 30.01 in 10.0 mi NNW 6.9 mph - N/A   Clear
4:53 PM 32.0 °F 26.4 °F 23.0 °F 69% 30.01 in 10.0 mi North 5.8 mph - N/A   Scattered Clouds
5:13 PM 32.0 °F 28.7 °F 23.0 °F 69% 30.01 in 10.0 mi NNW 3.5 mph - N/A   Scattered Clouds
5:33 PM 32.0 °F 28.7 °F 23.0 °F 69% 30.01 in 10.0 mi North 3.5 mph - N/A   Scattered Clouds
5:53 PM 32.0 °F - 21.2 °F 64% 30.01 in 10.0 mi Calm Calm - N/A   Scattered Clouds
6:13 PM 32.0 °F - 21.2 °F 64% 30.01 in 10.0 mi Calm Calm - N/A   Mostly Cloudy
6:33 PM 32.0 °F 28.7 °F 21.2 °F 64% 30.01 in 10.0 mi ENE 3.5 mph - N/A   Mostly Cloudy
7:13 PM 32.0 °F 28.7 °F 21.2 °F 64% 30.01 in 10.0 mi NE 3.5 mph - N/A   Scattered Clouds
7:33 PM 32.0 °F 28.7 °F 23.0 °F 69% 30.01 in 10.0 mi NE 3.5 mph - N/A   Clear
7:52 PM 32.0 °F 28.7 °F 23.0 °F 69% 30.01 in 10.0 mi NNE 3.5 mph - N/A   Scattered Clouds
8:33 PM 32.0 °F 25.6 °F 23.0 °F 69% 30.02 in 10.0 mi NE 6.9 mph - N/A   Clear
8:52 PM 30.2 °F 26.7 °F 23.0 °F 75% 30.01 in 10.0 mi North 3.5 mph - N/A   Scattered Clouds
9:13 PM 30.2 °F 25.4 °F 23.0 °F 75% 30.01 in 10.0 mi NNE 4.6 mph - N/A   Scattered Clouds
9:33 PM 30.2 °F - 23.0 °F 75% 30.02 in 10.0 mi Calm Calm - N/A   Mostly Cloudy
9:52 PM 30.2 °F 26.7 °F 23.0 °F 75% 30.02 in 10.0 mi ENE 3.5 mph - N/A   Overcast
10:13 PM 30.2 °F 25.4 °F 24.8 °F 80% 30.02 in 10.0 mi ENE 4.6 mph - N/A   Overcast
10:33 PM 30.2 °F 25.4 °F 24.8 °F 80% 30.02 in 10.0 mi ENE 4.6 mph - N/A   Overcast
10:52 PM 30.2 °F 25.4 °F 24.8 °F 80% 30.01 in 10.0 mi ENE 4.6 mph - N/A   Overcast
11:13 PM 30.2 °F 26.7 °F 23.0 °F 75% 30.02 in 10.0 mi NE 3.5 mph - N/A   Mostly Cloudy
11:33 PM 30.2 °F 24.3 °F 23.0 °F 75% 30.03 in 10.0 mi NE 5.8 mph - N/A   Mostly Cloudy
11:53 PM 28.4 °F 21.2 °F 23.0 °F 80% 30.02 in 10.0 mi ENE 6.9 mph - N/A   Overcast